SCP
0 0 0 0 0 0 0 0 0 0 0 0 0 0 0 0 0 0 0 0 0 0
0 0 0 0 0 0 0 0 0 0 0 0 0 0 0 0 0 0 0 0 0 0
0 0 0 0 0 0 0 0 0 0 0 0 0 0 0 0 0 0 0 0 0 0
0 0 0 0 0 0 0 0 0 0 0 0 0 0 0 0 0 0 0 0 0 0
0 0 0 0 0 0 0 0 0 0 0 0 0 0 0 0 0 0 0 0 0 0
0 0 0 0 0 0 0 0 0 0 0 0 0 0 0 0 0 0 0 0 0 0
0 0 0 0 0 0 0 0 0 0 0 0 0 0 0 0 0 0 0 0 0 0
0 0 0 0 0 0 0 0 0 0 0 0 0 0 0 0 0 0 0 0 0 0
0 0 0 0 0 0 0 0 0 0 0 0 0 0 0 0 0 0 0 0 0 0
0 0 0 0 0 0 0 0 0 0 0 0 0 0 0 0 0 0 0 0 0 0
0 0 0 0 0 0 0 0 0 0 0 0 0 0 0 0 0 0 0 0 0 0
0 0 0 0 0 0 0 0 0 0 0 0 0 0 0 0 0 0 0 0 0 0
0 0 0 0 0 0 0 0 0 0 0 0 0 0 0 0 0 0 0 0 0 0
0 0 0 0 0 0 0 0 0 0 0 0 0 0 0 0 0 0 0 0 0 0
Wind_Speed_500mb
72 74 73 76 74 71 68 66 62 58 58 59 61 64 67 71 73 75 78 82 87 86
71 72 71 70 70 69 65 63 58 56 56 56 55 56 58 61 65 69 73 80 84 91
69 70 70 70 68 66 62 61 61 60 61 58 56 54 55 58 59 65 67 71 78 83
61 62 63 65 63 63 62 62 61 59 59 58 57 56 58 59 60 65 65 72 82 84
50 51 54 56 57 56 57 56 55 54 57 56 57 55 56 59 61 67 71 73 73 75
48 50 51 51 51 51 52 52 52 50 50 54 53 52 52 57 55 59 61 61 53 55
39 42 45 48 50 50 50 49 50 49 48 50 50 50 54 47 54 53 63 62 54 68
34 36 38 40 41 42 43 45 48 51 52 50 50 49 49 52 59 61 61 65 68 63
34 35 35 34 34 35 36 36 36 34 31 35 39 40 44 48 51 53 55 56 54 51
38 36 33 31 31 29 28 27 24 23 26 29 33 37 40 42 43 45 43 45 45 45
38 33 30 26 23 21 21 21 19 20 22 24 25 28 26 22 23 25 27 26 28 31
31 25 21 19 18 17 17 18 21 21 22 20 17 14 14 15 20 21 22 25 25 25
27 23 21 21 22 21 20 20 20 17 15 12 14 15 17 18 17 15 19 24 22 19
32 29 27 21 18 15 14 15 15 15 15 17 17 17 16 16 15 14 16 18 19 21
Wind_Direction_500mb
249 250 254 258 261 265 268 268 270 271 270 269 270 270 269 269 269 269 269 270 267 269
250 251 256 260 262 265 268 271 271 271 271 271 272 273 273 272 271 271 272 273 275 276
254 256 258 262 263 265 268 269 270 271 273 275 276 277 276 277 276 276 275 275 276 278
253 257 259 261 262 263 267 269 272 275 275 276 277 276 276 275 277 274 275 275 275 280
249 252 255 258 261 264 267 271 272 272 272 271 270 270 272 273 277 278 281 284 282 287
242 246 250 254 257 259 261 262 263 265 263 267 268 267 268 275 275 279 279 280 291 296
243 246 249 251 252 254 254 255 257 256 258 260 262 264 268 264 268 276 277 282 284 282
239 245 249 252 255 257 258 259 260 258 254 255 257 263 263 266 271 270 271 272 277 280
248 252 254 255 257 259 262 263 263 266 268 269 270 269 272 270 271 273 274 274 279 281
249 251 253 256 256 259 265 271 273 270 263 262 266 272 276 282 282 283 281 278 283 290
246 249 252 256 259 258 258 262 270 275 278 279 277 278 281 285 289 294 301 299 302 302
249 251 247 242 241 240 240 248 254 256 260 262 269 287 286 286 279 283 297 292 289 290
232 223 219 216 218 220 228 237 244 254 265 274 275 284 288 288 296 300 310 318 319 310
212 208 208 210 221 223 231 238 241 248 261 276 282 276 276 282 285 286 303 312 315 311
Wind_Speed_850mb
72 74 73 76 74 71 68 66 62 58 58 59 61 64 67 71 73 75 78 82 87 86
71 72 71 70 70 69 65 63 58 56 56 56 55 56 58 61 65 69 73 80 84 91
69 70 70 70 68 66 62 61 61 60 61 58 56 54 55 58 59 65 67 71 78 83
61 62 63 65 63 63 62 62 61 59 59 58 57 56 58 59 60 65 65 72 82 84
50 51 54 56 57 56 57 56 55 54 57 56 57 55 56 59 61 67 71 73 73 75
48 50 51 51 51 51 52 52 52 50 50 54 53 52 52 57 55 59 61 61 53 55
39 42 45 48 50 50 50 49 50 49 48 50 50 50 54 47 54 53 63 62 54 68
34 36 38 40 41 42 43 45 48 51 52 50 50 49 49 52 59 61 61 65 68 63
34 35 35 34 34 35 36 36 36 34 31 35 39 40 44 48 51 53 55 56 54 51
38 36 33 31 31 29 28 27 24 23 26 29 33 37 40 42 43 45 43 45 45 45
38 33 30 26 23 21 21 21 19 20 22 24 25 28 26 22 23 25 27 26 28 31
31 25 21 19 18 17 17 18 21 21 22 20 17 14 14 15 20 21 22 25 25 25
27 23 21 21 22 21 20 20 20 17 15 12 14 15 17 18 17 15 19 24 22 19
32 29 27 21 18 15 14 15 15 15 15 17 17 17 16 16 15 14 16 18 19 21
Wind_Direction_850mb
249 250 254 258 261 265 268 268 270 271 270 269 270 270 269 269 269 269 269 270 267 269
250 251 256 260 262 265 268 271 271 271 271 271 272 273 273 272 271 271 272 273 275 276
254 256 258 262 263 265 268 269 270 271 273 275 276 277 276 277 276 276 275 275 276 278
253 257 259 261 262 263 267 269 272 275 275 276 277 276 276 275 277 274 275 275 275 280
249 252 255 258 261 264 267 271 272 272 272 271 270 270 272 273 277 278 281 284 282 287
242 246 250 254 257 259 261 262 263 265 263 267 268 267 268 275 275 279 279 280 291 296
243 246 249 251 252 254 254 255 257 256 258 260 262 264 268 264 268 276 277 282 284 282
239 245 249 252 255 257 258 259 260 258 254 255 257 263 263 266 271 270 271 272 277 280
248 252 254 255 257 259 262 263 263 266 268 269 270 269 272 270 271 273 274 274 279 281
249 251 253 256 256 259 265 271 273 270 263 262 266 272 276 282 282 283 281 278 283 290
246 249 252 256 259 258 258 262 270 275 278 279 277 278 281 285 289 294 301 299 302 302
249 251 247 242 241 240 240 248 254 256 260 262 269 287 286 286 279 283 297 292 289 290
232 223 219 216 218 220 228 237 244 254 265 274 275 284 288 288 296 300 310 318 319 310
212 208 208 210 221 223 231 238 241 248 261 276 282 276 276 282 285 286 303 312 315 311